Wind_Speed
46 45 47 47 48 49 51 52 52 52 52 54 54 53 52 52 52 53 53 53 53 52 50 48 46 45 43 42 41 40 40 39 38 37 36 36 36 35 34 34 34 34 33 31 28 26 25 23 22 22 22 22 21 20 20 20 19 19 18 17 16 15 14
40 42 45 46 47 49 50 50 51 51 52 52 54 54 53 53 53 54 54 54 53 52 51 49 48 46 44 42 41 41 41 40 39 38 36 36 36 36 35 34 34 34 34 32 29 27 25 25 24 23 22 22 22 21 21 21 21 20 19 19 18 17 16
38 40 43 46 49 51 50 50 51 51 52 52 53 54 55 55 55 55 55 55 54 52 51 50 48 47 45 43 43 42 41 41 41 40 38 37 36 36 35 34 34 34 34 33 31 29 27 26 25 24 23 23 23 22 23 23 22 21 20 20 19 19 17
42 43 45 48 51 50 49 50 50 51 52 53 55 55 56 56 55 55 56 55 54 53 53 51 50 48 46 45 44 43 42 42 41 40 39 38 37 36 35 35 34 34 35 34 32 30 28 26 25 24 24 23 23 22 23 24 23 22 22 21 21 20 19
44 45 46 46 46 45 46 49 51 52 53 53 54 55 55 55 55 55 55 55 55 54 53 51 50 49 48 46 45 44 43 42 42 41 40 38 37 36 36 36 35 35 35 34 33 31 29 27 26 25 25 24 23 23 23 24 24 24 23 23 23 22 21
41 43 43 44 45 45 48 50 52 53 54 53 53 53 53 53 53 54 55 55 55 54 52 52 51 50 49 47 46 45 44 43 42 42 41 39 38 37 36 35 34 34 35 35 34 32 30 29 27 26 25 25 23 23 24 24 25 25 24 24 24 23 22
42 43 45 46 47 48 50 50 51 52 52 52 51 51 51 52 53 53 54 54 54 54 53 53 52 51 50 48 46 45 44 44 43 42 42 41 40 38 36 35 35 34 34 35 35 33 31 30 28 27 27 26 25 24 24 24 24 25 25 25 24 24 23
45 45 47 48 49 50 50 50 51 50 49 49 49 49 50 51 52 52 53 53 53 53 53 53 53 52 51 48 46 45 44 43 42 42 42 42 41 40 38 37 35 33 33 35 35 35 33 31 30 29 29 28 27 26 25 25 24 24 25 25 25 25 24
47 48 51 51 50 51 50 51 52 50 48 49 49 50 51 51 51 52 53 53 53 53 53 53 52 51 50 49 47 45 43 42 42 41 42 42 42 41 39 37 35 34 34 34 35 36 35 33 31 31 31 31 29 28 27 26 26 26 26 27 27 26 25
44 47 50 50 50 49 49 49 48 47 48 49 49 49 50 51 51 51 52 52 52 53 53 53 52 51 50 49 47 45 44 43 42 42 42 42 42 41 39 38 36 35 35 35 35 36 35 34 33 33 33 33 32 30 29 28 27 27 28 28 28 28 27
41 44 47 47 47 45 44 45 46 47 49 50 50 50 50 51 51 51 52 52 52 53 52 52 52 51 50 49 47 46 45 44 43 42 42 42 41 41 40 38 37 36 36 35 35 35 35 35 35 35 35 35 34 32 31 29 29 29 29 29 29 29 28
40 43 44 45 44 44 44 45 48 49 50 52 51 50 51 51 51 51 51 52 53 52 52 52 51 51 50 49 48 47 45 44 43 43 42 42 41 41 40 39 38 37 36 36 36 35 35 35 35 36 37 36 35 34 33 32 31 30 30 30 30 30 30
41 43 44 44 44 44 44 46 49 49 50 52 52 51 51 51 51 51 51 51 52 52 52 52 51 51 51 50 49 47 46 44 43 42 42 41 41 40 40 40 39 37 36 36 36 36 36 36 36 37 37 37 36 35 35 34 33 33 32 31 30 30 30
40 42 42 42 42 43 45 47 49 50 51 52 52 51 51 50 51 51 51 51 51 51 51 51 51 51 51 50 50 48 46 44 42 41 40 40 39 39 39 39 39 38 36 36 36 37 37 37 36 37 37 38 37 36 36 36 36 35 34 33 32 31 31
35 38 39 40 42 44 46 48 49 50 51 52 52 51 50 50 50 50 50 51 51 51 51 51 51 51 50 50 50 49 46 44 43 42 41 40 39 39 39 39 39 38 36 36 36 36 36 36 37 37 37 38 38 38 37 37 37 36 35 35 34 34 33
33 36 39 41 44 46 48 50 50 51 51 52 52 51 51 51 51 51 51 50 50 50 50 50 50 50 50 50 50 48 47 46 45 43 42 40 39 38 39 39 39 38 38 37 36 36 36 36 36 37 38 38 38 38 38 39 38 37 36 35 35 35 35
32 35 39 42 45 47 49 49 48 48 49 51 52 52 52 52 52 52 50 50 49 49 49 49 49 49 49 49 48 47 46 46 45 44 43 41 40 39 40 39 39 39 39 38 37 36 36 36 37 37 37 38 38 38 39 39 38 37 36 36 35 35 35
32 35 38 42 45 47 48 46 46 46 48 50 51 51 52 52 51 51 51 50 49 47 47 47 48 48 48 48 47 46 46 45 44 44 43 41 40 39 39 39 40 40 40 39 39 37 37 37 37 38 38 38 39 39 39 39 38 37 36 36 35 35 35
35 38 40 43 45 46 47 46 47 48 49 50 51 51 51 51 51 52 51 50 48 46 46 46 47 47 47 46 46 46 45 45 44 44 43 42 41 39 39 40 41 41 40 40 39 39 39 38 38 38 38 39 40 40 39 39 37 37 36 36 35 35 36
37 39 40 43 45 46 47 47 47 48 48 49 49 49 49 49 50 49 48 47 47 46 46 46 46 46 46 45 45 45 44 44 44 43 42 41 40 40 40 40 40 41 41 40 40 40 40 39 39 39 39 39 40 40 40 39 38 37 37 37 36 36 36
35 38 39 41 42 43 44 45 46 45 46 47 47 46 46 47 47 46 45 46 46 46 46 46 46 46 45 45 44 43 43 43 42 42 41 40 40 40 39 39 39 40 40 40 40 39 39 39 39 39 39 39 39 40 41 40 39 38 38 37 37 37 37
32 36 38 40 42 44 44 44 45 46 46 45 44 43 44 45 45 45 45 45 45 45 45 46 46 46 45 44 43 42 42 41 41 40 39 39 39 39 38 37 37 38 38 39 39 39 38 39 39 39 39 39 39 40 41 39 39 39 39 38 38 38 38
26 30 34 37 40 42 43 43 44 44 43 42 41 41 42 43 44 44 43 42 43 43 44 44 45 45 44 43 41 41 40 40 39 38 38 38 38 38 36 34 34 35 35 37 38 38 38 38 38 38 39 39 39 39 39 38 38 39 39 39 39 39 38
19 23 26 30 33 34 35 35 36 37 38 38 38 39 39 40 41 41 41 41 41 42 43 44 44 44 44 42 40 39 39 38 38 37 37 37 37 35 33 32 32 32 32 33 34 34 34 34 35 36 38 38 38 38 38 38 38 38 38 38 38 38 38
15 18 20 22 25 26 27 29 30 31 33 34 35 36 37 37 37 38 39 40 40 41 43 44 44 43 42 41 38 38 38 38 37 37 37 36 35 33 31 30 30 29 29 30 31 31 30 31 33 34 35 36 37 37 38 38 37 37 37 37 37 37 36
20 19 19 19 20 22 24 25 26 26 26 28 30 31 31 31 32 34 37 38 39 41 42 43 43 42 41 40 38 37 38 38 38 37 36 36 34 32 30 29 29 29 30 30 30 30 30 31 32 32 32 33 35 36 36 36 36 36 35 35 35 35 35
30 27 25 23 22 23 23 24 24 24 23 23 24 26 26 27 28 30 32 35 37 38 38 39 39 40 41 41 40 39 38 38 38 37 36 34 33 31 31 30 30 30 30 30 30 30 30 31 31 31 31 32 33 34 34 33 34 34 34 33 33 33 33
33 32 31 30 28 28 28 28 27 26 24 21 21 21 22 23 25 26 28 30 32 32 32 33 35 36 38 39 40 40 39 38 38 38 36 35 34 33 33 32 31 31 31 31 31 31 31 31 31 31 31 31 32 33 32 32 32 32 32 32 32 31 31
29 30 30 30 28 27 28 29 28 25 23 21 20 19 18 19 20 21 24 27 28 27 28 30 32 33 35 36 37 38 38 38 38 37 37 36 35 35 34 33 33 33 33 33 33 33 33 33 32 32 32 31 32 32 31 31 31 32 32 32 31 31 30
26 26 26 27 25 23 23 24 23 21 19 17 16 16 15 16 16 17 19 20 22 24 26 28 29 31 33 34 35 36 37 37 37 37 37 36 35 36 35 34 34 34 34 34 34 34 34 33 33 33 32 32 32 31 30 30 31 32 33 32 31 30 29
25 24 24 23 22 21 20 20 19 17 15 13 12 12 13 13 15 15 15 16 17 19 20 22 25 27 29 31 32 33 34 35 36 36 36 36 36 37 36 36 36 36 36 36 36 36 35 34 34 34 32 31 30 29 29 30 32 33 33 32 31 29 28
25 23 22 21 20 19 18 18 17 15 14 12 9 8 8 9 11 12 13 14 16 17 18 19 21 23 25 26 27 27 28 29 31 32 33 34 35 36 36 36 36 36 36 36 36 36 35 34 34 33 33 31 29 28 29 30 31 31 31 30 29 27 25
24 23 22 21 19 17 16 16 16 14 12 10 7 6 5 5 6 7 8 10 12 14 16 18 20 21 22 23 24 24 24 24 25 26 27 28 31 33 35 36 36 36 36 36 36 36 35 34 34 33 32 31 29 28 29 29 30 30 29 27 26 24 23
21 20 20 20 18 16 16 16 15 13 11 9 7 4 2 3 4 5 6 6 7 8 9 12 15 17 19 20 21 22 24 24 24 23 23 24 27 31 33 35 36 37 37 36 36 35 34 33 33 32 30 28 27 27 28 28 28 28 26 25 24 23 22
18 18 18 18 17 16 16 16 14 13 12 10 8 5 2 2 4 6 6 6 7 7 7 7 9 11 14 16 18 20 22 24 24 23 23 23 25 28 31 34 36 37 37 36 35 34 32 31 30 28 26 25 25 26 26 26 26 25 24 23 23 21 20
17 17 17 17 17 16 16 16 16 15 14 13 10 7 4 4 6 8 9 9 8 8 8 7 7 8 11 14 18 20 22 24 25 25 24 24 25 26 28 31 32 33 34 34 33 32 31 29 27 24 22 22 23 24 23 23 22 22 22 22 21 20 19
17 16 16 16 16 16 17 17 17 17 16 15 13 10 7 5 5 7 9 11 11 10 8 8 8 8 9 12 15 18 20 22 24 25 25 25 26 26 27 28 30 30 31 31 30 29 28 26 23 21 20 19 20 21 21 21 21 21 21 20 20 19 18
14 13 13 13 13 14 15 14 15 15 15 15 14 13 10 8 6 5 5 8 11 11 9 7 7 9 10 10 12 15 18 21 23 25 26 26 26 27 27 28 28 28 29 28 27 26 25 24 22 21 20 20 19 20 20 21 22 22 20 20 20 19 18
Wind_Direction
202 204 204 205 206 206 206 205 205 205 205 206 206 207 208 208 209 209 211 212 213 215 216 216 218 219 220 220 222 223 224 225 225 225 226 226 227 227 227 226 227 229 229 229 230 229 228 227 223 221 222 223 224 226 229 231 232 233 233 235 236 237 237
203 204 203 204 205 207 207 206 205 205 205 205 205 206 207 208 208 209 211 213 214 216 217 217 218 220 221 222 223 224 225 227 227 228 229 229 228 228 228 228 228 230 230 231 232 231 231 232 229 224 221 221 223 226 229 231 232 233 235 237 238 240 239
206 206 204 205 206 207 206 205 205 205 205 205 205 206 207 208 209 210 211 212 214 216 217 218 220 221 222 223 224 225 226 227 229 230 231 231 230 229 229 229 230 231 232 232 232 232 232 233 233 229 223 221 222 225 228 231 232 233 235 237 240 243 243
205 206 206 207 207 207 205 204 205 205 206 207 206 207 208 208 210 210 212 213 214 215 217 218 220 221 223 223 224 226 227 228 229 231 233 233 233 232 232 231 231 232 232 232 232 232 232 233 235 233 227 222 221 222 226 229 231 233 234 236 238 241 244
204 205 206 207 207 206 205 205 206 206 207 208 208 208 208 209 209 210 212 214 215 217 219 220 221 221 223 224 225 227 228 229 231 232 234 235 234 234 234 233 232 232 232 231 231 231 231 232 234 234 229 224 221 221 223 227 231 233 234 235 238 240 242
203 203 204 206 205 205 206 206 206 207 207 208 208 208 208 208 209 210 211 213 214 217 218 220 221 221 222 224 225 227 228 230 231 233 234 235 235 234 233 232 232 232 232 232 231 231 231 232 233 233 229 225 222 220 221 224 228 232 234 236 238 240 242
202 202 203 205 205 205 206 206 206 207 207 207 207 207 207 208 209 210 211 212 214 215 216 218 220 221 223 224 225 227 229 231 232 233 234 235 235 235 234 233 233 233 234 233 233 232 232 232 231 230 229 227 224 221 221 222 225 229 234 236 238 240 242
202 201 203 205 205 205 205 205 205 206 205 205 206 206 207 208 209 210 211 212 214 215 216 218 220 221 223 224 225 228 230 232 233 234 235 235 235 235 234 234 233 234 234 234 234 234 234 234 232 230 229 229 227 224 223 223 225 228 232 235 238 240 241
202 201 204 205 205 205 204 204 204 203 203 203 205 206 206 208 209 210 211 212 213 214 217 219 221 222 223 224 226 228 230 232 233 234 235 235 235 235 235 234 233 233 234 233 233 234 235 235 234 231 230 230 230 228 227 227 227 229 231 234 237 239 241
201 201 204 204 204 204 203 203 202 201 201 202 204 206 206 208 209 210 211 212 213 215 217 220 221 222 223 225 227 228 230 231 232 233 234 235 236 236 235 234 234 234 234 234 234 234 235 235 235 233 232 232 232 231 230 230 230 231 232 234 237 239 242
200 201 202 203 202 202 201 200 200 201 201 202 204 205 206 207 209 210 211 212 214 216 217 218 219 221 223 225 227 228 229 231 232 233 234 235 236 236 236 236 236 235 235 234 234 234 234 234 234 233 232 232 232 233 233 233 233 234 235 235 237 239 241
199 200 201 201 200 199 198 199 201 202 202 202 203 205 206 207 209 210 211 213 215 216 217 218 219 221 223 225 226 228 229 231 232 233 234 235 236 237 237 236 236 236 235 234 233 233 233 234 234 234 233 233 233 234 236 236 237 238 238 238 239 240 242
196 198 200 200 197 196 196 197 200 202 202 202 204 205 206 208 209 210 211 213 215 216 217 218 219 221 223 224 226 227 229 231 233 234 235 237 237 238 237 237 237 237 236 235 234 233 233 233 234 234 235 235 235 236 237 239 240 241 242 242 242 243 244
193 195 196 196 194 194 195 197 200 202 202 203 204 205 206 208 209 211 212 213 215 215 216 217 219 220 221 222 224 227 229 232 233 235 236 238 239 239 239 239 238 238 238 237 237 235 234 234 234 235 236 237 238 239 240 241 242 243 243 244 244 245 246
190 191 191 191 192 194 195 197 200 201 202 203 203 204 206 207 209 210 212 213 214 215 216 217 219 220 221 222 225 227 229 231 232 233 235 237 238 239 240 239 239 239 239 239 239 239 237 236 236 236 237 238 239 240 242 243 243 243 243 244 245 246 248
188 188 188 190 191 194 197 199 201 202 201 201 203 204 205 207 209 210 211 212 213 214 216 217 218 220 221 223 226 228 229 229 231 232 233 235 237 239 239 239 239 239 239 240 240 240 240 239 239 239 238 239 239 241 242 243 243 244 244 244 246 247 250
187 187 189 190 191 195 198 200 201 200 199 201 204 205 207 209 210 210 211 212 213 214 215 216 218 220 222 225 227 229 229 230 231 232 234 235 237 239 239 239 239 239 239 239 239 240 241 241 241 241 241 241 242 242 243 243 244 244 245 246 247 248 250
187 188 189 190 192 196 198 198 199 199 200 202 205 206 208 210 209 209 211 212 212 213 214 216 219 221 224 227 228 230 231 232 233 233 235 236 238 239 240 240 240 240 239 239 239 239 240 241 241 242 242 244 245 245 246 246 246 246 247 248 249 250 252
188 190 191 192 194 196 197 199 200 202 203 204 206 209 211 211 211 212 212 211 211 212 213 216 219 222 225 228 229 231 232 233 234 235 235 237 238 240 241 240 240 240 240 240 240 241 241 241 242 243 243 244 245 247 248 248 248 249 249 250 251 252 254
191 192 193 194 196 198 199 201 203 204 205 207 210 212 213 213 214 215 213 211 211 213 214 216 219 222 226 229 230 232 233 234 235 236 237 238 239 240 241 242 242 242 242 242 242 242 242 243 243 244 244 245 246 248 249 250 251 252 252 253 254 255 256
194 194 194 195 197 199 201 201 202 204 207 209 211 213 213 214 215 215 214 214 213 214 215 218 221 224 227 229 231 232 233 234 235 237 238 239 239 240 242 243 244 244 244 244 244 244 245 245 246 246 246 246 247 249 250 251 252 253 254 255 256 257 258
197 196 196 197 199 202 204 205 206 207 209 211 212 213 215 215 215 215 215 216 215 215 217 219 222 225 227 229 230 232 233 234 235 236 238 238 239 240 241 243 245 245 245 245 246 247 247 247 248 248 248 249 249 250 252 252 253 255 256 257 258 259 260
203 200 199 200 202 204 207 208 209 210 211 212 213 216 217 217 216 215 215 215 216 217 218 220 222 225 227 229 230 232 233 234 235 236 237 238 238 239 241 243 244 245 245 245 246 247 247 248 249 249 250 250 251 252 253 254 255 256 258 259 259 260 261
201 200 200 201 202 204 205 206 208 209 210 213 214 215 217 216 215 215 215 216 217 217 218 221 223 226 227 229 231 232 233 235 236 237 237 238 238 240 241 243 244 245 245 245 246 248 249 250 251 251 252 252 252 253 255 256 258 259 260 261 261 261 262
170 184 189 193 197 199 201 203 205 207 208 211 212 213 214 215 215 216 217 218 219 218 220 222 224 227 228 230 234 235 236 236 237 238 238 239 240 241 242 243 244 245 245 246 247 249 250 251 252 252 253 254 254 255 256 258 259 260 261 262 262 262 264
123 146 160 168 178 184 188 192 195 197 200 205 209 212 214 217 218 220 222 222 221 220 223 226 227 228 230 232 235 237 238 239 238 239 240 241 242 244 244 244 245 245 245 246 247 249 250 250 251 253 254 255 256 257 258 259 260 260 261 262 263 263 264
102 115 127 136 148 158 164 169 173 176 180 189 200 206 211 215 218 222 224 224 224 227 231 232 231 230 231 232 234 235 238 240 240 241 243 243 245 246 245 245 245 245 246 247 248 249 250 250 251 253 254 256 256 258 260 261 262 263 263 264 265 265 265
92 101 111 119 127 136 142 144 149 153 156 163 176 187 195 203 210 217 222 225 229 235 240 239 236 235 235 235 235 236 237 239 241 242 243 244 245 245 245 246 246 246 248 248 249 250 250 251 251 252 254 255 256 258 260 262 263 264 265 265 265 266 266
80 88 99 108 114 122 130 133 135 138 141 147 157 164 174 187 198 208 217 224 231 237 240 240 239 238 238 238 238 239 239 239 241 242 243 244 244 245 246 247 247 247 247 248 248 249 250 251 251 252 253 254 255 257 260 262 263 264 264 265 265 265 265
68 74 85 93 99 109 120 124 124 127 132 140 152 161 171 180 188 197 206 215 225 231 236 239 239 239 239 240 241 241 241 241 241 242 243 245 245 245 246 246 246 247 247 247 248 248 249 250 250 250 252 253 255 257 260 261 262 262 262 262 263 263 263
62 66 73 80 87 96 106 110 114 119 124 130 143 161 176 186 194 200 207 212 220 227 232 236 238 239 240 241 242 242 243 243 243 243 244 245 245 245 245 245 245 245 246 246 247 247 249 249 250 250 251 253 255 258 260 260 260 260 260 260 260 260 261
59 62 67 70 76 84 92 101 107 113 117 120 128 145 164 182 196 207 216 222 225 229 233 236 238 240 240 241 243 243 243 243 243 243 244 244 244 245 246 245 245 245 245 246 246 247 248 249 250 250 251 252 255 257 258 258 258 258 259 259 259 258 257
54 58 62 65 69 74 81 90 97 101 105 108 112 126 151 174 190 205 220 230 232 233 235 238 240 241 241 241 242 243 243 243 242 242 242 241 241 242 243 244 244 245 245 245 244 245 246 247 248 249 250 252 254 255 256 256 257 258 258 258 257 255 253
50 54 58 63 66 68 72 75 78 80 83 85 85 87 129 193 206 213 221 236 247 247 244 242 241 241 241 241 240 240 241 242 242 242 241 239 237 237 238 239 240 241 243 244 244 245 246 247 248 250 251 253 253 252 253 254 255 257 257 257 256 254 251
46 50 54 60 63 64 64 62 61 58 55 54 54 45 15 279 254 247 242 245 257 265 265 257 248 243 239 237 237 235 234 236 238 239 238 237 235 234 234 235 236 238 240 242 244 246 248 251 253 255 256 255 254 252 252 253 254 256 256 255 254 251 249
35 41 49 57 60 60 58 55 52 48 41 35 29 18 352 300 275 264 255 251 254 263 268 266 261 251 239 234 235 234 232 231 232 232 234 236 236 235 234 234 235 236 238 241 243 245 248 250 254 257 257 255 254 253 252 253 255 254 251 249 247 244 242
28 33 41 49 53 55 54 51 50 45 36 29 22 16 6 336 296 270 255 248 247 252 261 265 263 258 246 238 236 235 234 233 231 230 231 233 235 236 235 235 235 235 236 239 242 244 246 248 249 249 249 249 251 251 249 248 248 247 244 241 238 235 233
26 33 39 43 49 56 57 55 52 45 36 30 27 25 25 19 2 333 291 261 248 246 250 256 260 259 254 248 243 239 237 235 232 231 230 231 232 234 234 235 236 235 234 235 236 238 241 241 241 240 240 241 242 242 242 240 238 236 234 230 227 226 225
Height
1438 1441 1445 1449 1452 1455 1456 1459 1463 1466 1469 1473 1476 1481 1485 1489 1493 1496 1499 1501 1505 1508 1511 1514 1517 1520 1522 1525 1528 1531 1533 1536 1538 1540 1542 1544 1547 1549 1552 1554 1556 1558 1559 1561 1563 1565 1567 1569 1571 1572 1573 1574 1576 1577 1578 1579 1580 1581 1582 1582 1583 1584 1585
1438 1440 1442 1446 1449 1451 1453 1457 1461 1464 1467 1470 1473 1477 1481 1485 1488 1491 1495 1498 1501 1505 1508 1511 1514 1517 1520 1523 1526 1528 1531 1534 1536 1538 1540 1542 1545 1547 1550 1552 1554 1556 1557 1559 1562 1564 1566 1567 1569 1571 1572 1573 1574 1575 1577 1578 1579 1580 1580 1581 1582 1582 1583
1436 1438 1440 1442 1443 1445 1449 1453 1457 1460 1464 1467 1470 1473 1476 1479 1483 1487 1491 1494 1498 1502 1505 1508 1511 1514 1517 1520 1523 1526 1528 1531 1533 1536 1538 1540 1542 1545 1547 1550 1552 1554 1556 1558 1560 1562 1564 1566 1567 1569 1570 1571 1573 1574 1575 1576 1577 1578 1579 1580 1580 1581 1582
1430 1432 1435 1437 1438 1441 1446 1450 1453 1457 1461 1463 1465 1468 1472 1476 1480 1484 1488 1491 1495 1499 1501 1505 1508 1511 1515 1517 1520 1523 1525 1528 1531 1533 1536 1538 1540 1543 1545 1547 1550 1552 1554 1556 1558 1560 1562 1564 1565 1567 1568 1570 1571 1572 1573 1574 1575 1577 1577 1578 1579 1580 1581
1423 1426 1430 1434 1437 1441 1444 1447 1450 1452 1456 1460 1463 1466 1470 1474 1478 1482 1485 1489 1492 1496 1498 1502 1506 1509 1512 1514 1517 1520 1523 1526 1528 1531 1533 1535 1538 1540 1542 1544 1547 1549 1551 1553 1556 1558 1560 1561 1563 1565 1566 1568 1569 1570 1571 1573 1574 1575 1576 1576 1577 1578 1579
1419 1422 1426 1430 1433 1438 1440 1442 1445 1448 1452 1456 1460 1464 1468 1473 1476 1479 1483 1486 1490 1494 1497 1501 1503 1506 1509 1511 1515 1518 1520 1523 1526 1528 1531 1533 1535 1537 1539 1541 1544 1546 1549 1551 1553 1555 1557 1559 1561 1563 1564 1566 1567 1568 1569 1571 1572 1573 1574 1575 1575 1576 1577
1413 1417 1421 1424 1427 1432 1435 1438 1442 1445 1450 1454 1459 1464 1467 1471 1474 1477 1481 1484 1487 1491 1494 1498 1500 1503 1506 1509 1512 1515 1517 1520 1523 1526 1529 1531 1533 1535 1536 1539 1541 1543 1546 1548 1550 1553 1554 1556 1558 1560 1562 1563 1565 1566 1568 1569 1570 1571 1572 1573 1573 1574 1575
1407 1411 1415 1419 1422 1426 1430 1434 1438 1443 1448 1453 1457 1460 1464 1467 1471 1474 1478 1481 1484 1488 1491 1494 1497 1500 1503 1507 1509 1512 1514 1518 1520 1523 1526 1528 1530 1532 1534 1536 1538 1541 1543 1545 1547 1549 1552 1554 1556 1558 1559 1561 1562 1564 1566 1567 1568 1569 1570 1571 1572 1573 1574
1402 1406 1409 1413 1417 1422 1426 1430 1435 1439 1444 1449 1452 1456 1460 1464 1467 1471 1474 1477 1481 1484 1487 1491 1494 1498 1501 1504 1507 1509 1512 1515 1518 1520 1523 1525 1527 1529 1531 1533 1536 1538 1540 1542 1544 1546 1549 1551 1553 1555 1557 1558 1560 1561 1563 1565 1566 1567 1568 1569 1570 1571 1572
1398 1402 1405 1409 1414 1418 1423 1427 1433 1437 1441 1445 1448 1452 1457 1460 1464 1467 1471 1474 1478 1480 1484 1488 1492 1495 1499 1501 1504 1507 1510 1512 1515 1517 1519 1521 1524 1526 1528 1531 1533 1535 1537 1539 1542 1544 1546 1548 1550 1552 1554 1556 1557 1559 1560 1562 1563 1565 1565 1566 1568 1569 1570
1396 1399 1402 1407 1411 1416 1422 1426 1431 1434 1437 1440 1444 1448 1452 1456 1460 1464 1467 1471 1474 1477 1481 1485 1489 1493 1496 1498 1501 1504 1507 1509 1512 1514 1516 1518 1520 1523 1525 1528 1530 1532 1534 1537 1539 1541 1543 1545 1547 1549 1551 1552 1554 1556 1557 1559 1560 1562 1563 1564 1565 1566 1567
1392 1396 1399 1404 1408 1413 1418 1422 1426 1429 1433 1436 1440 1444 1448 1452 1456 1460 1464 1467 1470 1474 1478 1482 1486 1489 1492 1495 1498 1501 1504 1506 1508 1510 1513 1515 1518 1520 1523 1525 1527 1529 1532 1534 1536 1538 1540 1542 1544 1546 1548 1549 1551 1553 1554 1556 1557 1559 1560 1562 1563 1564 1565
1387 1392 1397 1401 1405 1410 1414 1418 1422 1425 1429 1433 1436 1440 1445 1449 1453 1457 1460 1464 1467 1471 1475 1479 1482 1486 1489 1492 1495 1497 1500 1502 1505 1507 1510 1512 1515 1518 1520 1522 1524 1526 1528 1531 1533 1535 1537 1539 1541 1542 1544 1546 1548 1550 1552 1553 1555 1556 1557 1559 1560 1561 1562
1384 1388 1394 1398 1403 1407 1410 1414 1418 1422 1426 1430 1434 1438 1442 1446 1450 1454 1457 1461 1464 1468 1472 1475 1479 1482 1485 1488 1491 1494 1496 1499 1502 1505 1507 1510 1513 1515 1517 1519 1521 1523 1526 1528 1530 1532 1534 1536 1538 1540 1541 1543 1545 1547 1549 1550 1551 1553 1554 1555 1557 1558 1559
1382 1386 1391 1396 1400 1404 1407 1411 1414 1418 1422 1426 1431 1435 1439 1443 1447 1451 1454 1458 1461 1465 1468 1472 1476 1479 1482 1485 1487 1490 1493 1496 1499 1502 1505 1508 1510 1512 1514 1516 1518 1520 1523 1525 1526 1528 1531 1533 1535 1537 1538 1540 1542 1544 1545 1547 1548 1549 1551 1552 1553 1554 1555
1380 1384 1388 1391 1395 1400 1403 1407 1410 1413 1418 1423 1428 1432 1435 1440 1443 1446 1450 1454 1458 1462 1465 1469 1472 1475 1479 1481 1484 1487 1491 1494 1497 1499 1502 1504 1506 1508 1510 1513 1515 1517 1519 1521 1523 1525 1527 1530 1532 1533 1535 1537 1538 1540 1542 1543 1544 1545 1547 1549 1550 1551 1552
1377 1381 1385 1388 1392 1396 1400 1404 1408 1412 1416 1420 1424 1428 1431 1435 1438 1443 1447 1451 1455 1459 1462 1466 1469 1472 1475 1478 1481 1485 1488 1491 1494 1496 1499 1501 1503 1505 1507 1510 1512 1513 1515 1517 1519 1522 1524 1526 1528 1529 1531 1533 1535 1536 1538 1539 1540 1542 1544 1545 1547 1548 1550
1375 1379 1382 1386 1390 1394 1398 1402 1406 1410 1414 1417 1421 1425 1428 1432 1436 1440 1444 1448 1452 1456 1460 1464 1466 1469 1472 1475 1479 1482 1485 1487 1490 1493 1495 1497 1499 1502 1504 1507 1508 1510 1512 1513 1515 1518 1520 1522 1523 1525 1528 1529 1531 1532 1534 1535 1537 1538 1540 1542 1543 1545 1547
1372 1376 1379 1383 1387 1391 1395 1399 1402 1406 1409 1414 1418 1422 1425 1429 1433 1436 1440 1445 1450 1454 1458 1461 1463 1467 1469 1472 1476 1478 1481 1484 1486 1489 1491 1493 1496 1499 1501 1503 1504 1506 1508 1510 1512 1515 1516 1518 1520 1522 1524 1525 1527 1528 1530 1531 1533 1535 1537 1538 1540 1542 1544
1371 1373 1377 1381 1385 1389 1392 1396 1399 1403 1407 1412 1415 1419 1424 1428 1431 1435 1440 1445 1449 1452 1455 1458 1461 1464 1466 1469 1472 1474 1477 1480 1482 1485 1488 1490 1493 1496 1497 1499 1500 1502 1505 1507 1509 1511 1512 1514 1516 1518 1520 1521 1523 1525 1526 1527 1529 1531 1533 1535 1536 1539 1540
1370 1372 1376 1380 1384 1388 1392 1395 1398 1403 1407 1411 1415 1419 1424 1427 1431 1436 1441 1444 1447 1450 1452 1455 1458 1460 1463 1466 1468 1471 1474 1476 1479 1482 1484 1487 1490 1491 1493 1495 1497 1499 1501 1503 1505 1507 1508 1510 1512 1514 1516 1518 1519 1521 1522 1523 1525 1527 1529 1531 1533 1535 1538
1370 1372 1375 1378 1382 1386 1389 1393 1396 1400 1404 1409 1414 1418 1422 1425 1430 1435 1438 1442 1445 1447 1450 1453 1455 1457 1460 1462 1465 1468 1471 1473 1476 1478 1481 1483 1485 1487 1489 1491 1493 1495 1497 1499 1501 1503 1504 1506 1508 1509 1512 1514 1516 1517 1518 1519 1521 1524 1525 1527 1530 1533 1534
1372 1374 1376 1378 1381 1384 1388 1392 1395 1399 1404 1408 1413 1416 1420 1424 1428 1432 1436 1440 1443 1445 1448 1450 1452 1454 1457 1459 1462 1465 1468 1470 1472 1475 1477 1479 1481 1483 1485 1487 1489 1491 1494 1495 1497 1499 1500 1502 1503 1505 1508 1510 1512 1513 1514 1515 1518 1520 1521 1524 1527 1529 1530
1373 1376 1378 1381 1383 1386 1390 1394 1398 1402 1406 1409 1412 1415 1419 1423 1427 1430 1434 1437 1440 1443 1446 1447 1449 1451 1454 1457 1460 1462 1465 1467 1469 1471 1473 1475 1477 1480 1482 1484 1486 1488 1490 1491 1493 1494 1496 1498 1500 1502 1504 1506 1508 1509 1510 1511 1514 1516 1518 1520 1523 1525 1526
1374 1377 1380 1382 1385 1388 1392 1396 1400 1404 1408 1411 1414 1417 1420 1423 1426 1429 1432 1435 1438 1440 1442 1444 1446 1448 1451 1454 1457 1460 1462 1464 1466 1468 1470 1472 1474 1477 1479 1481 1483 1485 1487 1488 1489 1491 1493 1495 1497 1498 1500 1502 1504 1506 1507 1508 1510 1512 1514 1516 1519 1521 1522
1375 1377 1380 1383 1386 1389 1393 1396 1400 1404 1408 1412 1414 1417 1420 1423 1426 1428 1430 1433 1436 1437 1438 1440 1443 1446 1449 1452 1455 1457 1459 1461 1463 1465 1467 1469 1471 1474 1476 1478 1480 1482 1483 1484 1486 1488 1490 1492 1493 1495 1497 1499 1500 1502 1504 1505 1506 1508 1510 1513 1515 1517 1519
1379 1380 1381 1384 1387 1390 1393 1397 1400 1404 1407 1411 1413 1416 1418 1421 1424 1426 1429 1432 1434 1435 1436 1438 1442 1445 1447 1449 1451 1454 1456 1457 1459 1461 1464 1466 1468 1471 1473 1474 1476 1478 1480 1481 1483 1485 1486 1488 1490 1492 1493 1495 1497 1499 1500 1501 1503 1505 1507 1509 1511 1513 1515
1384 1384 1385 1387 1389 1391 1394 1397 1400 1403 1406 1409 1412 1414 1417 1420 1423 1425 1428 1430 1432 1433 1435 1438 1441 1443 1444 1446 1448 1450 1452 1455 1456 1458 1461 1463 1465 1467 1469 1471 1473 1475 1477 1478 1480 1482 1483 1485 1487 1489 1490 1492 1494 1495 1496 1498 1500 1502 1503 1506 1507 1510 1511
1388 1388 1389 1389 1391 1394 1395 1397 1400 1403 1406 1409 1411 1413 1416 1419 1421 1424 1427 1429 1431 1433 1435 1437 1439 1440 1442 1443 1445 1447 1449 1451 1453 1456 1458 1460 1462 1464 1466 1468 1470 1472 1473 1475 1477 1478 1480 1482 1484 1486 1487 1489 1491 1492 1493 1495 1496 1498 1500 1502 1504 1506 1508
1392 1392 1391 1391 1393 1395 1397 1398 1400 1402 1405 1407 1410 1412 1415 1418 1421 1423 1425 1427 1429 1431 1433 1435 1436 1438 1440 1441 1442 1444 1446 1448 1451 1453 1455 1457 1459 1461 1463 1465 1467 1468 1470 1472 1474 1475 1477 1478 1480 1482 1484 1486 1487 1488 1490 1491 1493 1494 1496 1498 1500 1502 1504
1394 1394 1394 1394 1394 1396 1397 1398 1400 1402 1404 1407 1410 1413 1416 1418 1420 1422 1424 1426 1428 1429 1431 1432 1434 1435 1437 1438 1440 1442 1444 1446 1448 1450 1452 1454 1456 1457 1459 1461 1463 1465 1467 1469 1470 1472 1473 1475 1477 1479 1481 1482 1484 1485 1487 1488 1489 1491 1492 1494 1497 1499 1501
1396 1396 1396 1396 1396 1397 1398 1398 1400 1402 1405 1408 1411 1413 1416 1417 1419 1420 1422 1424 1426 1427 1429 1430 1431 1433 1434 1436 1438 1440 1442 1443 1445 1447 1449 1451 1453 1454 1456 1458 1460 1462 1463 1465 1466 1468 1470 1472 1474 1475 1477 1479 1481 1483 1484 1485 1486 1487 1489 1491 1494 1496 1497
1399 1398 1398 1398 1398 1399 1399 1400 1401 1403 1406 1408 1411 1413 1414 1416 1417 1419 1420 1422 1423 1425 1426 1428 1429 1430 1432 1434 1435 1437 1439 1440 1442 1444 1446 1448 1450 1452 1453 1455 1457 1458 1460 1461 1463 1465 1467 1469 1471 1472 1474 1476 1478 1480 1480 1482 1483 1484 1486 1488 1491 1493 1495
1402 1401 1400 1400 1400 1401 1401 1402 1403 1405 1407 1409 1411 1412 1414 1415 1416 1418 1419 1420 1421 1423 1424 1426 1427 1428 1430 1431 1433 1435 1436 1438 1440 1442 1444 1445 1447 1449 1450 1452 1453 1455 1456 1458 1460 1462 1464 1466 1468 1470 1472 1474 1475 1476 1477 1478 1480 1481 1484 1486 1488 1490 1492
1405 1404 1403 1402 1402 1403 1403 1403 1405 1406 1407 1409 1410 1411 1412 1413 1414 1416 1417 1418 1420 1421 1422 1424 1425 1426 1428 1429 1430 1432 1433 1435 1437 1439 1441 1442 1444 1445 1447 1449 1450 1452 1454 1456 1458 1460 1462 1464 1465 1468 1470 1471 1473 1473 1474 1476 1477 1479 1482 1483 1485 1487 1488
1407 1406 1404 1404 1403 1404 1404 1404 1405 1406 1406 1407 1408 1408 1409 1411 1412 1414 1415 1417 1418 1420 1421 1422 1423 1424 1426 1427 1428 1429 1431 1432 1434 1436 1438 1439 1441 1442 1444 1446 1448 1450 1452 1454 1456 1458 1460 1462 1464 1466 1468 1469 1470 1471 1472 1474 1476 1477 1479 1480 1482 1484 1486
1410 1408 1406 1405 1404 1403 1403 1404 1405 1406 1407 1407 1408 1409 1410 1411 1412 1413 1415 1416 1417 1418 1419 1420 1422 1423 1424 1425 1426 1427 1429 1430 1432 1433 1435 1437 1438 1440 1442 1443 1445 1447 1449 1452 1454 1456 1458 1460 1462 1464 1466 1467 1468 1469 1471 1472 1473 1475 1476 1478 1480 1481 1483
1415 1413 1411 1409 1406 1405 1405 1406 1407 1409 1410 1411 1411 1411 1411 1412 1413 1414 1414 1415 1416 1417 1418 1419 1420 1421 1422 1424 1425 1426 1427 1428 1430 1431 1433 1434 1436 1438 1440 1442 1443 1445 1447 1450 1452 1454 1456 1458 1460 1462 1463 1465 1466 1467 1468 1470 1471 1472 1474 1476 1477 1479 1481